Regional Weather Roundup
Issued by NWS

Home | Current Version | Previous Version | Graphics & Text | Print | Product List | Glossary On
Versions: 1 2 3 4 5 6 7 8 9 10 11 12 13 14 15 16 17 18 19 20 21 22 23 24 25 26 27 28 29 30 31 32 33 34 35 36 37 38 39 40 41 42 43 44 45 46 47 48 49 50
000
ASUS43 KLOT 200403
RWRIL

ILLINOIS REGIONAL WEATHER ROUNDUP
NATIONAL WEATHER SERVICE CHICAGO/ROMEOVILLE IL
1000 PM CST THU JAN 19 2017

NOTE: "FAIR" INDICATES FEW OR NO CLOUDS BELOW 12,000 FEET WITH NO
SIGNIFICANT WEATHER AND/OR OBSTRUCTIONS TO VISIBILITY.

* THESE STATIONS ARE NOT UNDER NWS QUALITY CONTROL. THEY ALSO MAY NOT
  REPORT WEATHER SUCH AS PRECIPITATION OR FOG.

ILZ001-002-007-009-015-016-024-200500-
NORTHWEST ILLINOIS

CITY           SKY/WX    TMP DP  RH WIND       PRES   REMARKS
MOLINE         CLOUDY    37  36  96 E9        29.69F FOG     WCI  30
STERLING*      LGT RAIN  37  36  96 E12       29.72F FOG     WCI  29
SAVANNA*       CLOUDY    37  37  99 E8        29.73F FOG     WCI  31
$$

ILZ003-004-008-010-011-017-018-200500-
NORTH CENTRAL ILLINOIS

CITY           SKY/WX    TMP DP  RH WIND       PRES   REMARKS
ROCKFORD       LGT RAIN  38  36  92 NE8       29.77F FOG     WCI  32
FREEPORT*      LGT RAIN  36  35  99 E9        29.76F WCI  29
ROCHELLE*      CLOUDY    37  36  98 E7        29.74F FOG     WCI  31
DE KALB*       RAIN      37  37  99 E8        29.76F WCI  31
$$

ILZ005-006-012>014-019>023-200500-
NORTHEAST ILLINOIS

CITY           SKY/WX    TMP DP  RH WIND       PRES   REMARKS
CHICAGO-OHARE  RAIN      38  37  97 E9        29.76F FOG     WCI  31
CHICAGO-MIDWAY LGT RAIN  38  37  97 E9        29.77F FOG     WCI  31
AURORA         LGT RAIN  39  37  92 CALM      29.76F FOG
LANSING*       RAIN      38  38 100 NE5       29.76F WCI  34
JOLIET*        LGT RAIN  41  40  98 E7        29.74F
WAUKEGAN       LGT RAIN  37  36  96 SE7       29.77F FOG     WCI  32
DUPAGE AIRPORT RAIN      39  36  89 E9        29.74F FOG     WCI  33
WHEELING       LGT RAIN  37  36  96 E7        29.79F FOG     WCI  32
MORRIS*        LGT RAIN  39  38  96 CALM      29.72F
ROMEOVILLE*    LGT RAIN  38  38 100 E10       29.74F WCI  31
NORTHERLY ISL    N/A     35  34  96 CALM        N/A
$$

LMZ740>746-200500-
SOUTHERN LAKE MICHIGAN

STATION/POSITION SKY/WX   TEMP    WIND        PRES    VSBY  WAVE
                          AIR SEA DIR/SP/G                  HT/PER
                          (F)     (DEG/KT/KT) (MB)    (MI)  (FT/S)
HARRISON CRIB              38     100/ 11/ 11   N/A
BURNHAM HARBOR             35      30/  2/  5   N/A
CALUMET HARBOR             35      50/  4/  6 1008.0F
BURNS HARBOR               35      50/  7/  8 1008.8F
MICHIGAN CITY              38      50/  6/  7   N/A
$$

ILZ025>027-034>036-040-047-049-050-058-095>099-200500-
WEST-CENTRAL ILLINOIS

CITY           SKY/WX    TMP DP  RH WIND       PRES   REMARKS
QUINCY         FOG       42  42 100 E6        29.64F VSB 1/4
GALESBURG*     CLOUDY    38  38 100 E6        29.69F FOG     WCI  34
MACOMB*        FOG       39  39 100 E6        29.69F VSB 1/2 WCI  35
JACKSONVILLE*  FOG       42  42  99 E6        29.66R VSB 3/4
PITTSFIELD*    FOG       43  43 100 CALM      29.66F VSB 1/4
$$

ILZ028>032-037-038-041>044-048-051>054-059>061-200500-
CENTRAL ILLINOIS

CITY           SKY/WX    TMP DP  RH WIND       PRES   REMARKS
PONTIAC        CLOUDY    39  39 100 E13       29.70F FOG     WCI  32
BLOOMINGTON    LGT RAIN  39  39 100 E8        29.69F FOG     WCI  33
DECATUR        CLOUDY    42  33  70 E8        29.67F HAZE
PEORIA         CLOUDY    41  40  96 E7        29.69F FOG
LACON*         CLOUDY    38  38 100 E8        29.70F FOG     WCI  32
LINCOLN*       CLOUDY    42  42 100 E6        29.68F FOG
SPRINGFIELD    CLOUDY    44  42  93 E8        29.66F FOG
TAYLORVILLE    CLOUDY    43  43  99 E3        29.66F FOG
$$

ILZ033-039-045-046-055>057-062-063-200500-
EAST-CENTRAL ILLINOIS

CITY           SKY/WX    TMP DP  RH WIND       PRES   REMARKS
CHAMPAIGN      LGT RAIN  43  42  97 E9        29.67F FOG
RANTOUL*       RAIN      43  43  99 E9        29.68F
MATTOON        LGT RAIN  45  45 100 CALM      29.65F
PARIS*         DRIZZLE   44  44 100 E6        29.67F
$$

ILZ079-100>102-200500-
SOUTHWEST ILLINOIS

CITY           SKY/WX    TMP DP  RH WIND       PRES   REMARKS
ALTON          LGT RAIN  45  45 100 NE8       29.65F VSB 3/4
BELLEVILLE     LGT RAIN  46  46 100 CALM      29.64F
CAHOKIA*       RAIN      47  46  97 CALM      29.65S FOG
SPARTA*        RAIN      46  46 100 CALM      29.66F
$$

ILZ064>066-069>071-074>076-080>082-084>086-088>090-092>094-200500-
SOUTH-CENTRAL ILLINOIS

CITY           SKY/WX    TMP DP  RH WIND       PRES   REMARKS
CARBONDALE     LGT RAIN  52  52 100 W7        29.65S FOG
CAIRO*         CLOUDY    57  56  99 S6        29.68S
EFFINGHAM*     RAIN      48  48 100 CALM      29.65F
MARION         LGT RAIN  59  59 100 S12       29.66S
MT. VERNON     RAIN      50  50 100 CALM      29.63F FOG
CENTRALIA*     RAIN      48  48 100 NW3       29.65R
SALEM*         LGT RAIN  48  47  94 CALM      29.63F
METROPOLIS*    LGT RAIN  56  56  99 CALM      29.68S
$$

ILZ067-068-072-073-078-083-087-091-200500-
SOUTHEAST ILLINOIS

CITY           SKY/WX    TMP DP  RH WIND       PRES   REMARKS
LAWRENCEVILLE  RAIN      50  49  96 SE9       29.66F FOG
FLORA*         LGT RAIN  50  50  97 SE6       29.64F
FAIRFIELD*     LGT RAIN  53  53 100 CALM      29.63F
HARRISBURG*    LGT RAIN  56  56 100 SW6       29.67R
ROBINSON*      LGT RAIN  47  47 100 SE7       29.67F
CARMI*         RAIN      54  54 100 SE8       29.65S
$$

ABBREVIATIONS USED IN REMARKS
   TC - TEMPERATURE IN CELSIUS
  WCI - WIND CHILL INDEX
   HX - HEAT INDEX
  VSB - VISIBILITY
$$





USA.gov is the U.S. government's official web portal to all federal, state and local government web resources and services.